Location: Cold Norton
(51.6667°N, 0.6667°E)
Time: 07:34:26
(UTC+00:00)

USA 281 - Pass Details

Date: 18 November 2025
Orbit: 1079 x 1080 km, 106.0° (Epoch: 11 December)

Event Time Altitude Azimuth Distance (km) Brightness Sun altitude
Exits shadow 18:11:31 32° 90° (E) 1,779 3.8 -19.5°
Maximum altitude 18:13:46 41° 48° (NE) 1,514 3.6 -19.9°
Drops below altitude 10° 18:19:50 10° 341° (NNW) 2,932 5.7 -20.8°
Sets 18:22:29 0° 335° (NNW) 3,890 6.4 -21.2°
